Location: Bletchingley
(51.2333°N, 0.1000°W)
Time: 17:02:05
(UTC+00:00)

CENTAUR R/B - Pass Details

Date: 18 September 2020
Orbit: 753 x 1435 km, 63.5° (Epoch: 26 October)

Event Time Altitude Azimuth Distance (km) Brightness Sun altitude
Rises 19:21:45 0° 312° (NW) 4,007 7.0 -12.3°
Reaches altitude 10° 19:24:22 10° 316° (NW) 3,135 6.2 -12.7°
Maximum altitude 19:32:03 65° 38° (NE) 1,445 3.3 -13.8°
Enters shadow 19:38:32 19° 116° (ESE) 2,823 4.2 -14.8°
